This demonstration page uses our WeatherBlox Daily Observations layout. Learn more.

Left ArrowRight Arrow

Hourly Observations for January 4, 2016

Temp ( °F °C ) Dew Point ( °F °C ) Humidity (%) Winds ( mph kmh ) Pressure ( in mb ) Visibility ( mi km ) Precip ( " mm )
12:05 am 00:05 Cloudy with Mist and Fog 17 -8.3 15 -9.4 92 92 NE 5 7 30.53 1034 3 4 0.00 0.00
12:30 am 00:30 Cloudy with Mist and Fog 18 -8 16 -9 93 93 NE 6 9 30.56 1035 2 3 0.00 0.00
12:43 am 00:43 Cloudy with Mist and Fog 17 -8.3 16 -8.9 95 95 ENE 6 9 30.56 1035 3 4 0.00 0.00
12:50 am 00:50 Cloudy with Mist and Fog 18 -8 16 -9 93 93 ENE 7 11 30.56 1035 3 5 0.00 0.00
12:54 am 00:54 Cloudy with Mist and Fog 17 -8.3 15 -9.4 92 92 ENE 8 13 30.51 1033 3 4 0.00 0.00
1:06 am 01:06 Cloudy with Mist and Fog 17 -8.3 16 -8.9 95 95 N 6 9 30.53 1034 3 5 0.00 0.00
1:19 am 01:19 Cloudy with Mist and Fog 17 -8.3 16 -8.9 95 95 N 7 11 30.53 1034 3 4 0.00 0.00
1:54 am 01:54 Cloudy with Mist and Fog 17 -8.3 16 -8.9 95 95 N 6 9 30.51 1033 2 3 0.00 0.00
2:05 am 02:05 Cloudy with Mist and Fog 18 -7.8 16 -8.9 92 92 NNE 7 11 30.53 1034 3 4 0.00 0.00
2:54 am 02:54 Cloudy with Mist and Fog 18 -7.8 16 -8.9 92 92 E 7 11 30.53 1034 3 4 0.00 0.00
3:20 am 03:20 Cloudy with Mist and Fog 18 -8 16 -9 93 93 NNE 6 9 30.56 1035 2 2 0.00 0.00
3:38 am 03:38 Cloudy with Mist and Fog 18 -8 16 -9 93 93 ENE 3 6 30.56 1035 3 4 0.00 0.00
3:54 am 03:54 Cloudy with Mist and Fog 18 -7.8 16 -8.9 92 92 NE 7 11 30.53 1034 3 4 0.00 0.00
4:15 am 04:15 Cloudy with Mist and Fog 18 -7.8 16 -8.9 92 92 ENE 6 9 30.56 1035 3 5 0.00 0.00
4:32 am 04:32 Cloudy with Mist and Fog 18 -7.8 15 -9.4 88 88 Calm 30.56 1035 2 3 0.00 0.00
4:54 am 04:54 Cloudy with Mist and Fog 18 -7.8 16 -8.9 92 92 E 5 7 30.53 1034 2 3 0.00 0.00
5:10 am 05:10 Cloudy with Mist and Fog 18 -8 16 -9 93 93 NE 5 7 30.56 1035 4 6 0.00 0.00
5:54 am 05:54 Cloudy with Mist and Fog 18 -7.8 16 -8.9 92 92 SE 5 7 30.54 1034 5 8 0.00 0.00
6:54 am 06:54 Cloudy with Mist and Fog 18 -7.8 15 -9.4 88 88 E 6 9 30.55 1035 4 6 0.00 0.00
7:54 am 07:54 Cloudy with Mist and Fog 18 -7.8 15 -9.4 88 88 SE 7 11 30.56 1035 3 5 0.00 0.00
8:13 am 08:13 Cloudy with Mist and Fog 18 -8 16 -9 93 93 VRB 3 6 30.59 1036 2 3 0.00 0.00
8:38 am 08:38 Cloudy with Mist and Fog 18 -8 16 -9 93 93 SSE 5 7 30.59 1036 2 3 0.00 0.00
8:54 am 08:54 Cloudy with Mist and Fog 19 -7.2 16 -8.9 88 88 SSE 7 11 30.57 1035 2 3 0.00 0.00
9:04 am 09:04 Cloudy with Mist and Fog 19 -7 16 -9 86 86 S 6 9 30.59 1036 2 3 0.00 0.00
9:54 am 09:54 Cloudy with Mist and Fog 20 -6.7 18 -7.8 92 92 SSE 5 7 30.57 1035 2 3 0.00 0.00
10:32 am 10:32 Cloudy with Mist and Fog 21 -6 18 -8 86 86 S 9 15 30.59 1036 4 6 0.00 0.00
10:39 am 10:39 Cloudy with Mist and Fog 20 -6.7 18 -7.8 92 92 S 9 15 30.59 1036 4 6 0.00 0.00
10:54 am 10:54 Cloudy with Mist and Fog 21 -6.1 19 -7.2 92 92 S 9 15 30.57 1035 4 6 0.00 0.00
11:54 am 11:54 Cloudy with Mist and Fog 22 -5.6 20 -6.7 92 92 S 8 13 30.55 1035 3 5 0.00 0.00
12:54 pm 12:54 Cloudy with Mist and Fog 24 -4.4 21 -6.1 88 88 SSE 8 13 30.52 1034 6 10 0.00 0.00
1:41 pm 13:41 Mostly Cloudy 24 -4.4 20 -6.7 84 84 SSE 8 13 30.50 1033 9 14 0.00 0.00
1:54 pm 13:54 Mostly Cloudy 26 -3.3 21 -6.1 81 81 S 8 13 30.49 1032 10 16 0.00 0.00
2:54 pm 14:54 Mostly Cloudy 26 -3.3 21 -6.1 81 81 SSE 10 17 30.47 1032 10 16 0.00 0.00
3:43 pm 15:43 Partly Cloudy 27 -3 21 -6 80 80 SE 9 15 30.48 1032 10 16 0.00 0.00
3:54 pm 15:54 Mostly Cloudy 28 -2.2 21 -6.1 75 75 SE 9 15 30.45 1031 10 16 0.00 0.00
4:03 pm 16:03 Partly Cloudy 27 -3 21 -6 80 80 SE 10 17 30.45 1031 10 16 0.00 0.00
4:54 pm 16:54 Sunny 26 -3.3 20 -6.7 78 78 SE 7 11 30.45 1031 10 16 0.00 0.00
5:54 pm 17:54 Mostly Clear 25 -3.9 20 -6.7 81 81 SE 9 15 30.45 1031 10 16 0.00 0.00
6:30 pm 18:30 Mostly Cloudy 25 -3.9 20 -6.7 81 81 SE 14 22 30.45 1031 10 16 0.00 0.00
6:54 pm 18:54 Cloudy 25 -3.9 20 -6.7 81 81 SSE 13 20 30.44 1031 10 16 0.00 0.00
7:13 pm 19:13 Partly Cloudy 24 -4.4 20 -6.7 84 84 SSE 10 17 30.45 1031 10 16 0.00 0.00
7:51 pm 19:51 Mostly Cloudy 23 -5 19 -7 86 86 SSE 7 11 30.48 1032 10 16 0.00 0.00
7:54 pm 19:54 Mostly Cloudy 22 -5.6 19 -7.2 89 89 SSE 7 11 30.43 1031 10 16 0.00 0.00
8:54 pm 20:54 Mostly Cloudy 23 -5 20 -6.7 88 88 SE 12 19 30.42 1030 9 14 0.00 0.00
9:11 pm 21:11 Clear 23 -5 19 -7.2 85 85 SSE 9 15 30.45 1031 8 13 0.00 0.00
9:54 pm 21:54 Mostly Clear 20 -6.7 18 -7.8 92 92 S 8 13 30.41 1030 8 13 0.00 0.00
10:54 pm 22:54 Clear 20 -6.7 17 -8.3 89 89 S 9 15 30.40 1030 8 13 0.00 0.00
11:48 pm 23:48 Mostly Cloudy 19 -7 18 -8 93 93 SSE 7 11 30.42 1030 7 11 0.00 0.00
11:54 pm 23:54 Mostly Cloudy 21 -6.1 18 -7.8 88 88 SSE 6 9 30.39 1029 7 11 0.00 0.00

Powered by AerisWeather